Location: Narrabri
(30.3170°S, 149.7830°E)
Time: 05:57:45
(UTC+11:00)

Envisat - Pass Details

Date: 12 October 2017
Orbit: 764 x 766 km, 98.2° (Epoch: 13 December)

Event Time Altitude Azimuth Distance (km) Brightness Sun altitude
Rises 21:04:13 0° 160° (SSE) 3,258 6.3 -24.5°
Reaches altitude 10° 21:06:39 10° 154° (SSE) 2,325 5.5 -25.0°
Enters shadow 21:08:28 21° 144° (SE) 1,674 4.6 -25.3°
